Flag for Portugal Weather past 2 weeks in Ponta Delgada, Azores, Portugal

Now
66 °F

Partly sunny.


Feels Like: 66 °F
Forecast: 65 / 71 °F
Wind: 12 mph from North

Location: Ponta Delgada / Nordela Acores

Current Time: Sep 17, 2014 at 2:23:55 PM

Latest Report: Sep 17, 2014 at 1:30 PM


Visibility: N/A

Pressure: 30.07 "Hg

Humidity: 56%

Dew point: 50 °F

Location of Ponta DelgadaLocation

Historic Weather in Ponta Delgada — Graph

°F

Ponta Delgada temperature yesterday

Maximum temperature yesterday: 72 °F (at 11:30 AM)
Minimum temperature yesterday: 64 °F (at 3:00 AM)
Average temperature yesterday: 67 °F

Past Weeks' High & Low Weather Summary

 TemperatureHumidityPressure
High79 °F (Sep 4, 12:00 PM)94% (Sep 3, 4:30 AM)30.07 "Hg (Sep 3, 4:30 AM)
Low61 °F (Sep 11, 6:30 AM)52% (Sep 10, 11:00 PM)29.65 "Hg (Sep 15, 12:00 AM)
Average69 °F76%29.87 "Hg
* Reported Sep 2 1:00 PM — Sep 17 1:00 PM, Ponta Delgada, Weather by CustomWeather, © 2014

Note: Actual official high and low records may vary slightly from our data, if they occured in-between our weather recording intervals... More about our weather records

Advertising

Ponta Delgada weather history for previous 24 hours

 ConditionsComfort  
Time TempWeatherWind HumidityBarometerVisibility
1:00 PM
Sep 17
66 °FPartly sunny.13 mph56%30.07 "HgN/A
12:30 PM66 °FPartly sunny.10 mph60%30.07 "HgN/A
12:00 PM66 °FScattered showers. Partly sunny.12 mph60%30.07 "HgN/A
11:30 AM68 °FPartly sunny.10 mph53%30.07 "HgN/A
11:00 AM66 °FScattered clouds.10 mph60%30.04 "HgN/A
10:30 AM66 °FPartly sunny.9 mph60%30.04 "HgN/A
10:00 AM66 °FPartly sunny.10 mph56%30.04 "HgN/A
9:30 AM64 °FPartly sunny.9 mph56%30.04 "HgN/A
9:00 AM64 °FPartly sunny.8 mph56%30.04 "HgN/A
8:30 AM64 °FPartly sunny.9 mph56%30.04 "HgN/A
8:00 AM63 °FPassing clouds.10 mph56%30.04 "HgN/A
7:30 AM63 °FPassing clouds.8 mph59%30.01 "HgN/A
7:00 AM63 °FPassing clouds.8 mph56%30.01 "HgN/A
6:30 AM63 °FPassing clouds.10 mph68%30.01 "HgN/A
6:00 AM64 °FPassing clouds.8 mph56%30.01 "HgN/A
5:30 AM63 °FPassing clouds.7 mph59%30.01 "HgN/A
5:00 AM63 °FPassing clouds.7 mph59%29.98 "HgN/A
4:30 AM63 °FPassing clouds.3 mph64%29.98 "HgN/A
4:00 AM64 °FPassing clouds.5 mph56%30.01 "HgN/A
3:30 AM64 °FPassing clouds.7 mph64%30.01 "HgN/A
3:00 AM63 °FPassing clouds.9 mph73%30.01 "HgN/A
2:30 AM63 °FPassing clouds.9 mph68%30.01 "HgN/A
2:00 AM64 °FPassing clouds.7 mph68%30.01 "HgN/A
1:30 AM63 °FPassing clouds.6 mph77%30.01 "HgN/A
1:00 AM63 °FPassing clouds.6 mph77%30.01 "HgN/A
12:30 AM64 °FPassing clouds.6 mph73%30.01 "HgN/A
12:00 AM64 °FPassing clouds.6 mph73%30.01 "HgN/A
11:30 PM
Sep 16
64 °FPassing clouds.5 mph68%30.01 "HgN/A
11:00 PM64 °FPassing clouds.5 mph68%30.01 "HgN/A
10:30 PM64 °FPassing clouds.5 mph68%30.01 "HgN/A
10:00 PM64 °FPassing clouds.7 mph68%29.98 "HgN/A
9:30 PM64 °FPassing clouds.5 mph68%29.98 "HgN/A
9:00 PM64 °FPassing clouds.6 mph68%29.98 "HgN/A
8:30 PM66 °FPassing clouds.8 mph64%29.95 "HgN/A
8:00 PM66 °FPassing clouds.8 mph68%29.95 "HgN/A
7:30 PM66 °FScattered clouds.7 mph68%29.95 "HgN/A
7:00 PM66 °FScattered clouds.10 mph73%29.95 "HgN/A
6:00 PM68 °FScattered clouds.9 mph69%29.92 "HgN/A
5:30 PM70 °FScattered clouds.8 mph60%29.92 "HgN/A
5:00 PM70 °FPassing clouds.12 mph64%29.92 "HgN/A
4:03 PM70 °FScattered clouds.12 mph60%29.92 "HgN/A
4:00 PM70 °FScattered clouds.10 mph60%29.92 "HgN/A
3:30 PM72 °FScattered clouds.10 mph61%29.92 "HgN/A
3:00 PM72 °FScattered clouds.12 mph57%29.92 "HgN/A
2:30 PM72 °FScattered clouds.14 mph61%29.92 "HgN/A
2:00 PM70 °FPassing clouds.12 mph60%29.92 "HgN/A
Weather by CustomWeather, © 2014

See weather overviewHow to use our weather pages